Regional Weather Roundup
Issued by NWS Albany, NY

Home | Current Version | Previous Version | Text Only | Print | Product List | Glossary On
Versions: 1 2 3 4 5 6 7 8 9 10 11 12 13 14 15 16 17 18 19 20 21 22 23 24 25 26 27 28 29 30 31 32 33 34 35 36 37 38 39 40 41 42 43 44 45 46 47 48 49 50
000
ASUS41 KALY 300610
RWRALY

NEW YORK STATE HOURLY WEATHER ROUNDUP
NATIONAL WEATHER SERVICE ALBANY NY
200 AM EDT MON MAR 30 2015

NOTE: "FAIR" INDICATES FEW OR NO CLOUDS BELOW 12,000 FEET WITH NO
SIGNIFICANT WEATHER AND/OR NO OBSTRUCTIONS TO VISIBILITY.

NYZ032-033-038>043-046>054-057>066-NYZ062>081-300700-
EAST


CITY           SKY/WX    TMP DP  RH WIND       PRES   REMARKS
ALBANY         CLOUDY    35   8  32 SE7       29.95F WCI  29
GLENS FALLS    CLOUDY    32  12  43 S7        29.93F WCI  26
POUGHKEEPSIE   FAIR      29  20  69 CALM      30.03F
NEWBURGH       CLOUDY    36  10  35 CALM      30.04F
MONTGOMERY     PTCLDY    32  15  49 SW6       30.01F WCI  26
WHITE PLAINS   MOCLDY    36  12  37 SW3       30.05F
ISLIP          MOCLDY    36  25  64 SW10      30.08F WCI  28
NEW YORK CITY  MOCLDY    39  12  33 SW10      30.08F WCI  32
CENTRAL PARK   MOCLDY    39  11  31 SW9       30.10F WCI  33
$$

NYZ005>009-017-018-044>046-055-056-300700-
CENTRAL


CITY           SKY/WX    TMP DP  RH WIND       PRES   REMARKS
FULTON         LGT RAIN  38  21  50 S12G25    29.83F WCI  30
SYRACUSE       CLOUDY    39  18  42 SW15      29.85F WCI  31
ROME           CLOUDY    36  14  40 S9        29.90F WCI  29
ELMIRA         CLOUDY    40  16  37 SW12      29.85F WCI  33
BINGHAMTON     CLOUDY    34  14  43 S16G25    29.87F WCI  24
MONTICELLO     CLOUDY    30  10  43 S8        29.97F WCI  23
$$

NYZ026>034-041>043-300700-
NORTH


CITY           SKY/WX    TMP DP  RH WIND       PRES   REMARKS
WATERTOWN      LGT SNOW  35  28  75 S9        29.81F WCI  28
FORT DRUM      NOT AVBL
MASSENA        CLOUDY    38  13  35 SW12      29.80F WCI  30
SARANAC LAKE   CLOUDY    32   9  38 SW13      29.76F WCI  22
PLATTSBURGH    CLOUDY    32  15  49 SE7       29.85F WCI  26
$$

NYZ001>004-010>016-019>021-300700-
WEST


CITY           SKY/WX    TMP DP  RH WIND       PRES   REMARKS
NIAGARA FALLS  CLOUDY    39  23  52 SW25G37   29.70F WCI  28
BUFFALO        CLOUDY    39  24  55 SW20G28   29.72F WCI  29
DUNKIRK        CLOUDY    40  27  59 S20G38    29.73F WCI  30
JAMESTOWN      CLOUDY    36  25  64 SW20G31   29.75F WCI  25
WELLSVILLE     CLOUDY    33  25  72 S17G26    29.77F WCI  22
ROCHESTER      CLOUDY    37  27  67 SW13      29.76F WCI  29
PENN YAN       CLOUDY    37  27  67 S13G21    29.80F WCI  29
$$

             KEY
       WCI = WIND CHILL INDEX
       VSB = VISIBILITY
       HX  = HEAT INDEX
$$


USA.gov is the U.S. government's official web portal to all federal, state and local government web resources and services.